Location: Jackson Park
(37.2862°N, 79.9123°W)
Time: 05:09:27
(UTC+00:00)

Transit 4A - All Passes

Search period start: 10 May 2026 00:00
Search period end: 20 May 2026 00:00
Orbit: 861 x 980 km, 66.8° (Epoch: 9 May)

Date Brightness Start Highest point End Pass type
(mag) Time Alt. Az. Time Alt. Az. Time Alt. Az.
10 May - 01:41:03 10° W 01:42:13 10° W 01:43:22 10° WSW visible
10 May - 13:09:22 10° SSE 13:14:34 31° ESE 13:19:55 10° NE daylight
10 May - 14:54:59 10° SW 15:00:41 41° NW 15:06:35 10° NNE daylight
10 May - 22:13:36 10° N 22:18:56 27° NE 22:24:12 10° ESE daylight
10 May - 23:59:22 10° NW 00:05:36 55° WSW 00:11:43 10° S daylight
11 May - 13:17:22 10° S 13:23:07 47° ESE 13:29:03 10° NE daylight
11 May - 15:04:25 10° WSW 15:09:38 29° NW 15:15:01 10° N daylight
11 May - 22:22:00 10° NNW 22:27:55 37° NE 22:33:44 10° ESE daylight
12 May - 00:08:25 10° NW 00:14:12 36° WSW 00:19:52 10° S daylight
12 May - 13:25:44 10° SSW 13:31:44 71° ESE 13:37:59 10° NNE daylight
12 May - 15:14:11 10° W 15:18:41 21° NW 15:23:18 10° N daylight
12 May - 20:47:25 10° NNE 20:48:57 11° NE 20:50:29 10° NE daylight
12 May - 22:30:32 10° NNW 22:36:49 53° ENE 22:42:59 10° SE daylight
13 May - 00:17:44 10° NW 00:22:42 24° WSW 00:27:37 10° SSW daylight
13 May - 11:51:58 10° SE 11:54:59 14° ESE 11:58:05 10° ENE daylight
13 May - 13:34:22 10° SSW 13:40:27 79° WNW 13:46:46 10° NNE daylight
13 May - 15:24:25 10° WNW 15:27:50 15° NW 15:31:18 10° N daylight
13 May - 20:54:37 10° N 20:58:12 15° NE 21:01:46 10° ENE daylight
13 May - 22:39:11 10° NNW 22:45:37 77° ENE 22:51:56 10° SSE daylight
14 May - 00:27:36 10° WNW 00:31:09 16° WSW 00:34:41 10° SW daylight
14 May - 11:58:52 10° SSE 12:03:25 22° ESE 12:08:05 10° NE daylight
14 May - 13:43:18 10° SW 13:49:14 54° WNW 13:55:25 10° NNE daylight
14 May - 15:35:45 10° NW 15:37:06 11° NW 15:38:27 10° NNW daylight
14 May - 21:02:38 10° N 21:07:22 21° NE 21:12:02 10° E daylight
14 May - 22:47:57 10° NNW 22:54:20 74° WSW 23:00:37 10° SSE daylight
15 May - 12:06:32 10° S 12:11:55 34° ESE 12:17:28 10° NE daylight
15 May - 13:52:31 10° WSW 13:58:08 37° NW 14:03:57 10° NNE daylight
15 May - 21:10:55 10° N 21:16:25 29° NE 21:21:50 10° ESE daylight
15 May - 22:56:51 10° NW 23:02:59 49° WSW 23:09:01 10° S daylight
16 May - 12:14:38 10° S 12:20:29 52° ESE 12:26:32 10° NE daylight
16 May - 14:02:01 10° WSW 14:07:07 27° NW 14:12:21 10° N daylight
16 May - 21:19:21 10° NNW 21:25:23 41° NE 21:31:18 10° SE daylight
16 May - 23:05:57 10° NW 23:11:33 33° WSW 23:17:04 10° S daylight
17 May - 12:23:05 10° SSW 12:29:08 78° ESE 12:35:26 10° NNE daylight
17 May - 14:11:53 10° W 14:16:11 19° NW 14:20:35 10° N daylight
17 May - 19:44:17 10° NNE 19:46:30 12° NE 19:48:43 10° ENE daylight
17 May - 21:27:55 10° NNW 21:34:15 58° ENE 21:40:28 10° SE daylight
17 May - 23:15:22 10° WNW 23:20:04 22° WSW 23:24:42 10° SSW daylight
18 May - 10:48:47 10° SE 10:52:19 16° ESE 10:55:55 10° ENE daylight
18 May - 12:31:48 10° SW 12:37:52 72° WNW 12:44:11 10° NNE daylight
18 May - 14:22:17 10° WNW 14:25:22 14° NW 14:28:30 10° N daylight
18 May - 19:51:50 10° N 19:55:44 16° NE 19:59:36 10° E daylight
18 May - 21:36:35 10° NNW 21:43:02 84° ENE 21:49:21 10° SSE daylight
18 May - 23:25:27 10° WNW 23:28:29 14° W 23:31:30 10° SW daylight
19 May - 10:55:56 10° SSE 11:00:46 25° ESE 11:05:42 10° NE daylight
19 May - 12:40:47 10° SW 12:46:41 49° WNW 12:52:48 10° NNE daylight
19 May - 19:59:56 10° N 20:04:52 23° NE 20:09:44 10° E daylight
19 May - 21:45:23 10° NNW 21:51:45 67° WSW 21:57:58 10° SSE daylight
